Gainesville, GA

3:28 AM EDT on May 21, 2018 (GMT -0400)
Gilmer Memorial

Weather History for KGVL - February, 2018

Change the Weather History Date:

Wednesday, February 14, 2018

  Actual Average Record
Temperature  
Mean Temperature 54 °F 45 °F  
Max Temperature 64 °F 55 °F 79 °F (1951)
Min Temperature 44 °F 36 °F 13 °F (1971)
Degree Days  
Heating Degree Days 11 20  
Month to date heating degree days 236 294  
Since 1 July heating degree days 2120 2212  
Growing Degree Days 4 (Base 50)    
Moisture  
Dew Point 48 °F    
Average Humidity 84    
Maximum Humidity 100    
Minimum Humidity 67    
Precipitation  
Precipitation T in 0.17 in 1.12 in (1931)
Month to date precipitation 4.65 2.23  
Year to date precipitation 7.05 7.26  
Snow  
Snow 0.00 in - - ()
Month to date snowfall 0.0  
Since 1 July snowfall 0.0  
Snow Depth 0.00 in    
Sea Level Pressure  
Sea Level Pressure 30.42 in    
Wind  
Wind Speed 4 mph (WSW)    
Max Wind Speed 14 mph    
Max Gust Speed 16 mph    
Visibility 9 miles    
Events Rain    
T = Trace of Precipitation, MM = Missing Value Source: NWS Daily Summary

Daily Weather History Graph

Daily Weather History Graph

Search for Another Location

Airport or City:

Astronomy

Feb. 14, 2018 Rise Set
Actual Time 7:21 AM EST 6:18 PM EST
Civil Twilight 6:55 AM EST 6:43 PM EST
Nautical Twilight 6:26 AM EST 7:13 PM EST
Astronomical Twilight 5:57 AM EST 7:42 PM EST
Moon 6:36 AM EST (2/14) 5:21 PM EST (2/14)
Length of Visible Light 11h 48m
Length of Day
10h 56m
Waning Crescent, 1% of the Moon is Illuminated
Feb 14
Waning Crescent
Feb 15
New
Feb 23
First Quarter
Mar 1
Full
Mar 9
Last Quarter

Hourly Weather History & Observations

Time (EST) Temp. Windchill Dew Point Humidity Pressure Visibility Wind Dir Wind Speed Gust Speed Precip Events Conditions
12:53 AM 46.9 °F - 39.0 °F 74% 30.55 in 10.0 mi ENE 3.5 mph - N/A   Overcast
1:53 AM 46.0 °F - 39.0 °F 76% 30.55 in 10.0 mi Calm Calm - N/A   Overcast
2:37 AM 45.0 °F - 39.9 °F 82% 30.52 in 10.0 mi Calm Calm - N/A   Overcast
2:53 AM 46.0 °F - 39.9 °F 79% 30.51 in 10.0 mi Calm Calm - N/A   Overcast
3:53 AM 46.0 °F - 39.9 °F 79% 30.49 in 10.0 mi Calm Calm - N/A   Overcast
4:53 AM 46.0 °F - 39.9 °F 79% 30.48 in 10.0 mi Calm Calm - N/A   Overcast
5:53 AM 46.0 °F 43.9 °F 41.0 °F 83% 30.48 in 9.0 mi NNW 4.6 mph - N/A   Overcast
6:16 AM 45.0 °F 42.6 °F 43.0 °F 93% 30.48 in 6.0 mi NNW 4.6 mph - N/A   Overcast
6:37 AM 45.0 °F 42.6 °F 43.0 °F 93% 30.48 in 7.0 mi NNW 4.6 mph - N/A   Overcast
6:53 AM 45.0 °F 43.5 °F 43.0 °F 93% 30.50 in 7.0 mi NW 3.5 mph - N/A   Overcast
7:50 AM 46.4 °F 45.2 °F 42.8 °F 87% 30.49 in 7.0 mi NNW 3.5 mph - N/A   Overcast
7:53 AM 46.9 °F - 43.0 °F 86% 30.50 in 7.0 mi NNW 4.6 mph - N/A   Overcast
8:01 AM 46.9 °F - 43.0 °F 86% 30.49 in 7.0 mi NNW 5.8 mph - N/A   Overcast
8:53 AM 48.0 °F - 43.0 °F 83% 30.49 in 8.0 mi Calm Calm - N/A   Overcast
9:22 AM 48.0 °F - 44.1 °F 86% 30.49 in 8.0 mi SSW 3.5 mph - N/A   Overcast
9:53 AM 48.9 °F - 45.0 °F 86% 30.50 in 8.0 mi WSW 3.5 mph - N/A   Overcast
10:30 AM 51.1 °F - 46.0 °F 83% 30.50 in 9.0 mi Calm Calm - N/A   Overcast
10:53 AM 52.0 °F - 46.9 °F 83% 30.49 in 10.0 mi Calm Calm - N/A   Overcast
11:07 AM 53.1 °F - 48.0 °F 83% 30.49 in 10.0 mi SSW 3.5 mph - N/A   Overcast
11:24 AM 54.0 °F - 48.0 °F 80% 30.48 in 9.0 mi SSW 4.6 mph - 0.00 in Rain Light Rain
11:53 AM 53.1 °F - 48.9 °F 86% 30.47 in 10.0 mi Calm Calm - 0.00 in   Overcast
12:53 PM 60.1 °F - 52.0 °F 75% 30.42 in 10.0 mi WSW 5.8 mph - N/A   Partly Cloudy
1:53 PM 63.0 °F - 53.1 °F 70% 30.39 in 10.0 mi Variable 5.8 mph - N/A   Mostly Cloudy
2:34 PM 63.0 °F - 54.0 °F 72% 30.39 in 10.0 mi WSW 8.1 mph - N/A   Overcast
2:53 PM 64.0 °F - 54.0 °F 70% 30.37 in 10.0 mi WSW 9.2 mph - N/A   Overcast
3:53 PM 62.1 °F - 55.0 °F 78% 30.35 in 10.0 mi SW 9.2 mph 16.1 mph N/A   Overcast
4:53 PM 61.0 °F - 55.0 °F 81% 30.33 in 10.0 mi SW 5.8 mph - N/A   Overcast
5:53 PM 59.0 °F - 55.0 °F 87% 30.33 in 10.0 mi WSW 6.9 mph - N/A   Overcast
6:27 PM 59.0 °F - 55.0 °F 87% 30.34 in 10.0 mi WSW 4.6 mph - N/A   Overcast
6:53 PM 59.0 °F - 55.0 °F 87% 30.33 in 10.0 mi SW 3.5 mph - N/A   Overcast
7:21 PM 57.9 °F - 55.0 °F 90% 30.34 in 10.0 mi SSW 4.6 mph - N/A   Overcast
7:53 PM 57.9 °F - 54.0 °F 87% 30.33 in 10.0 mi SW 5.8 mph - N/A   Overcast
8:24 PM 57.0 °F - 54.0 °F 89% 30.34 in 10.0 mi SW 5.8 mph - N/A   Overcast
8:53 PM 57.0 °F - 54.0 °F 89% 30.33 in 10.0 mi SSW 4.6 mph - N/A   Overcast
9:33 PM 55.9 °F - 54.0 °F 93% 30.35 in 5.0 mi WSW 9.2 mph - N/A   Overcast
9:53 PM 55.9 °F - 55.0 °F 97% 30.33 in 5.0 mi SW 4.6 mph - N/A   Overcast
10:13 PM 55.9 °F - 55.0 °F 97% 30.33 in 8.0 mi Variable 3.5 mph - N/A   Overcast
10:53 PM 55.9 °F - 54.0 °F 93% 30.32 in 8.0 mi SSW 3.5 mph - N/A   Overcast
11:32 PM 55.0 °F - 54.0 °F 96% 30.32 in 10.0 mi SSW 3.5 mph - N/A   Overcast
11:53 PM 55.0 °F - 54.0 °F 96% 30.31 in 9.0 mi SW 4.6 mph - 0.00 in Rain Light Rain